| time (UTC) | temp F | wind direction | speed knots | gust knots | rain 1hr in | rain 24hr in | rain mn in | humidity % | barometer mb |
| 20260506051055 | 49 | 0 | 0.0 | 0.0 | 0.00 | 0.61 | 0.01 | 98 | 1006.3 |
| 20260506045051 | 49 | 0 | 0.0 | 0.0 | 0.00 | 0.61 | 0.01 | 99 | 1006.2 |
| 20260506044053 | 49 | 0 | 0.0 | 0.0 | 0.00 | 0.61 | 0.01 | 99 | 1006.3 |
| 20260506043054 | 50 | 0 | 0.0 | 0.0 | 0.00 | 0.61 | 0.01 | 99 | 1006.3 |
| 20260506041052 | 49 | 0 | 0.0 | 0.0 | 0.00 | 0.61 | 0.01 | 99 | 1006.4 |
| 20260506040054 | 49 | 0 | 0.0 | 0.0 | 0.00 | 0.61 | 0.01 | 99 | 1006.5 |
| 20260506035058 | 50 | 0 | 0.0 | 0.0 | 0.00 | 0.61 | 0.01 | 99 | 1006.6 |
| 20260506034057 | 50 | 0 | 0.0 | 0.0 | 0.00 | 0.61 | 0.01 | 99 | 1006.7 |
| 20260506033052 | 50 | 0 | 0.0 | 0.0 | 0.00 | 0.61 | 0.01 | 99 | 1006.6 |
| 20260506032052 | 50 | 0 | 0.0 | 0.0 | 0.00 | 0.61 | 0.01 | 99 | 1006.6 |
| 20260506031055 | 50 | 0 | 0.0 | 0.0 | 0.00 | 0.61 | 0.01 | 99 | 1006.6 |
| 20260506030053 | 50 | 0 | 0.0 | 0.0 | 0.00 | 0.61 | 0.01 | 98 | 1006.7 |
| 20260506025055 | 50 | 0 | 0.0 | 0.0 | 0.00 | 0.61 | 0.01 | 99 | 1006.7 |
| 20260506024055 | 51 | 0 | 0.0 | 0.0 | 0.00 | 0.61 | 0.01 | 99 | 1006.6 |
| 20260506023055 | 51 | 0 | 0.0 | 0.0 | 0.00 | 0.61 | 0.01 | 99 | 1006.5 |
| 20260506022056 | 51 | 0 | 0.0 | 0.0 | 0.00 | 0.61 | 0.01 | 99 | 1006.6 |
| 20260506021054 | 51 | 0 | 0.0 | 0.0 | 0.00 | 0.61 | 0.01 | 99 | 1006.6 |
| 20260506020053 | 51 | 0 | 0.0 | 0.0 | 0.00 | 0.61 | 0.01 | 99 | 1006.5 |
| 20260506015054 | 51 | 0 | 0.0 | 0.0 | 0.00 | 0.61 | 0.01 | 99 | 1006.6 |
| 20260506014054 | 51 | 0 | 0.0 | 0.0 | 0.01 | 0.61 | 0.01 | 99 | 1006.6 |
| 20260506013052 | 51 | 0 | 0.0 | 0.0 | 0.01 | 0.61 | 0.01 | 98 | 1006.7 |
| 20260506012055 | 51 | 0 | 0.0 | 0.0 | 0.01 | 0.61 | 0.01 | 98 | 1006.7 |
| 20260506011055 | 51 | 0 | 0.0 | 0.0 | 0.01 | 0.61 | 0.01 | 98 | 1006.8 |
| 20260506010050 | 52 | 0 | 0.0 | 0.0 | 0.01 | 0.61 | 0.01 | 98 | 1006.8 |
| 20260506005053 | 52 | 0 | 0.0 | 0.0 | 0.01 | 0.61 | 0.01 | 99 | 1006.8 |
| 20260506004055 | 52 | 0 | 0.0 | 0.0 | 0.01 | 0.61 | 0.01 | 99 | 1006.9 |
| 20260506003052 | 52 | 0 | 0.0 | 0.0 | 0.00 | 0.60 | 0.00 | 99 | 1006.9 |
| 20260506002055 | 52 | 0 | 0.0 | 0.0 | 0.00 | 0.60 | 0.00 | 99 | 1007.0 |
| 20260506001053 | 52 | 0 | 0.0 | 0.0 | 0.00 | 0.60 | 0.00 | 99 | 1007.1 |
| 20260506000101 | 52 | 0 | 0.0 | 0.0 | 0.00 | 0.60 | 0.00 | 99 | 1007.1 |
| 20260505235101 | 52 | 0 | 0.0 | 0.0 | 0.00 | 0.60 | 0.00 | 99 | 1007.2 |
| 20260505234102 | 52 | 0 | 0.0 | 0.0 | 0.00 | 0.60 | 0.00 | 10 | 1007.2 |
| 20260505233103 | 53 | 0 | 0.0 | 0.0 | 0.00 | 0.60 | 0.00 | 10 | 1007.3 |
| 20260505232103 | 53 | 0 | 0.0 | 0.0 | 0.00 | 0.60 | 0.00 | 10 | 1007.3 |
| 20260505231104 | 53 | 0 | 0.0 | 0.0 | 0.00 | 0.60 | 0.00 | 10 | 1007.3 |
| 20260505230107 | 52 | 0 | 0.0 | 0.0 | 0.00 | 0.60 | 0.00 | 10 | 1007.4 |
| 20260505225103 | 52 | 0 | 0.0 | 0.0 | 0.00 | 0.60 | 0.00 | 10 | 1007.5 |
| 20260505223104 | 52 | 0 | 0.0 | 0.0 | 0.00 | 0.60 | 0.00 | 10 | 1007.6 |
| 20260505222107 | 52 | 0 | 0.0 | 0.0 | 0.00 | 0.60 | 0.00 | 10 | 1007.6 |
| 20260505221108 | 52 | 0 | 0.0 | 0.0 | 0.00 | 0.60 | 0.00 | 10 | 1007.6 |
| 20260505215111 | 52 | 0 | 0.0 | 0.0 | 0.01 | 0.60 | 0.60 | 10 | 1007.8 |
| 20260505214114 | 52 | 0 | 0.0 | 0.0 | 0.02 | 0.60 | 0.60 | 10 | 1007.9 |
| 20260505213111 | 52 | 0 | 0.0 | 0.0 | 0.02 | 0.60 | 0.60 | 10 | 1007.9 |
| 20260505212112 | 52 | 0 | 0.0 | 0.0 | 0.04 | 0.60 | 0.60 | 10 | 1007.9 |
| 20260505211107 | 52 | 0 | 0.0 | 0.0 | 0.06 | 0.60 | 0.60 | 10 | 1008.0 |
| 20260505210109 | 52 | 0 | 0.0 | 0.0 | 0.07 | 0.60 | 0.60 | 10 | 1008.1 |
| 20260505205108 | 52 | 0 | 0.0 | 0.0 | 0.10 | 0.60 | 0.60 | 10 | 1008.2 |
| 20260505204109 | 52 | 0 | 0.0 | 0.0 | 0.13 | 0.59 | 0.59 | 10 | 1008.2 |
| 20260505203113 | 52 | 0 | 0.0 | 0.0 | 0.15 | 0.58 | 0.58 | 10 | 1008.2 |
| 20260505202109 | 52 | 0 | 0.0 | 0.0 | 0.17 | 0.57 | 0.57 | 10 | 1008.1 |
| 20260505195108 | 52 | 0 | 0.0 | 0.0 | 0.16 | 0.53 | 0.53 | 99 | 1008.0 |
| 20260505194110 | 52 | 0 | 0.0 | 0.0 | 0.13 | 0.50 | 0.50 | 99 | 1008.0 |
| 20260505193112 | 52 | 0 | 0.0 | 0.0 | 0.11 | 0.46 | 0.46 | 99 | 1007.9 |
| 20260505192106 | 52 | 0 | 0.0 | 0.0 | 0.09 | 0.43 | 0.43 | 99 | 1007.9 |
| 20260505191109 | 52 | 0 | 0.0 | 0.0 | 0.08 | 0.42 | 0.41 | 99 | 1007.9 |
| 20260505190108 | 53 | 0 | 0.0 | 0.0 | 0.06 | 0.39 | 0.39 | 99 | 1007.9 |
| 20260505185107 | 53 | 0 | 0.0 | 0.0 | 0.06 | 0.39 | 0.38 | 98 | 1007.9 |
| 20260505184108 | 53 | 0 | 0.0 | 0.0 | 0.06 | 0.38 | 0.37 | 98 | 1007.8 |
| 20260505183103 | 53 | 0 | 0.0 | 0.0 | 0.06 | 0.38 | 0.37 | 98 | 1007.8 |
| 20260505181105 | 53 | 0 | 0.0 | 0.0 | 0.04 | 0.35 | 0.35 | 98 | 1007.9 |
| 20260505180106 | 53 | 0 | 0.0 | 0.0 | 0.02 | 0.34 | 0.33 | 98 | 1007.8 |
| 20260505175100 | 54 | 0 | 0.0 | 0.0 | 0.02 | 0.33 | 0.32 | 97 | 1007.9 |
| 20260505173106 | 54 | 0 | 0.0 | 0.0 | 0.00 | 0.31 | 0.31 | 96 | 1007.9 |
| 20260505172058 | 54 | 0 | 0.0 | 0.0 | 0.00 | 0.31 | 0.31 | 96 | 1007.9 |
| 20260505165106 | 54 | 0 | 0.0 | 0.0 | 0.02 | 0.31 | 0.31 | 94 | 1008.0 |
| 20260505164100 | 54 | 0 | 0.0 | 0.0 | 0.02 | 0.31 | 0.31 | 95 | 1008.0 |
| 20260505162100 | 54 | 0 | 0.0 | 0.0 | 0.03 | 0.31 | 0.31 | 95 | 1008.1 |
| 20260505161100 | 54 | 0 | 0.0 | 0.0 | 0.03 | 0.31 | 0.31 | 95 | 1008.2 |
| 20260505153059 | 54 | 0 | 0.0 | 0.0 | 0.02 | 0.33 | 0.28 | 94 | 1008.4 |
| 20260505152101 | 54 | 0 | 0.0 | 0.0 | 0.02 | 0.35 | 0.28 | 95 | 1008.4 |
| 20260505151058 | 54 | 0 | 0.0 | 0.0 | 0.02 | 0.36 | 0.28 | 94 | 1008.5 |
| 20260505140106 | 54 | 0 | 0.0 | 0.0 | 0.03 | 0.35 | 0.25 | 95 | 1008.8 |
| 20260505124100 | 55 | 0 | 0.0 | 0.0 | 0.20 | 0.31 | 0.20 | 95 | 1009.1 |
| 20260505122058 | 55 | 0 | 0.0 | 0.0 | 0.17 | 0.28 | 0.17 | 96 | 1009.1 |
| 20260505121056 | 55 | 0 | 0.0 | 0.0 | 0.17 | 0.28 | 0.17 | 96 | 1009.1 |
| 20260505120057 | 55 | 0 | 0.0 | 0.0 | 0.15 | 0.26 | 0.15 | 95 | 1009.1 |
| 20260505115057 | 55 | 0 | 0.0 | 0.0 | 0.10 | 0.21 | 0.10 | 93 | 1009.1 |
| 20260505114059 | 56 | 0 | 0.0 | 0.0 | 0.05 | 0.16 | 0.05 | 89 | 1009.1 |
| 20260505113058 | 57 | 0 | 0.0 | 0.0 | 0.00 | 0.11 | 0.00 | 85 | 1009.0 |
| 20260505112059 | 57 | 0 | 0.0 | 0.0 | 0.00 | 0.11 | 0.00 | 83 | 1008.9 |
| 20260505111100 | 58 | 0 | 0.0 | 0.0 | 0.00 | 0.11 | 0.00 | 81 | 1008.9 |
| 20260505102056 | 57 | 0 | 0.0 | 0.0 | 0.00 | 0.13 | 0.00 | 82 | 1009.4 |
| 20260505101058 | 58 | 0 | 0.0 | 0.0 | 0.00 | 0.13 | 0.00 | 80 | 1009.4 |
| 20260505100056 | 58 | 0 | 0.0 | 0.0 | 0.00 | 0.13 | 0.00 | 81 | 1009.4 |
| 20260505095056 | 58 | 0 | 0.0 | 0.0 | 0.00 | 0.14 | 0.00 | 82 | 1009.4 |
| 20260505094059 | 57 | 0 | 0.0 | 0.0 | 0.00 | 0.16 | 0.00 | 84 | 1009.5 |
| 20260505093056 | 57 | 0 | 0.0 | 0.0 | 0.00 | 0.17 | 0.00 | 85 | 1009.6 |
| 20260505092058 | 57 | 0 | 0.0 | 0.0 | 0.00 | 0.17 | 0.00 | 86 | 1009.6 |
| 20260505091059 | 57 | 0 | 0.0 | 0.0 | 0.00 | 0.17 | 0.00 | 86 | 1009.6 |
| 20260505090057 | 57 | 0 | 0.0 | 0.0 | 0.00 | 0.17 | 0.00 | 87 | 1009.7 |
| 20260505085058 | 56 | 0 | 0.0 | 0.0 | 0.00 | 0.17 | 0.00 | 87 | 1009.7 |
| 20260505084057 | 56 | 0 | 0.0 | 0.0 | 0.00 | 0.17 | 0.00 | 89 | 1009.8 |
| 20260505083058 | 56 | 0 | 0.0 | 0.0 | 0.00 | 0.17 | 0.00 | 88 | 1009.8 |
| 20260505082058 | 55 | 0 | 0.0 | 0.0 | 0.00 | 0.17 | 0.00 | 89 | 1009.9 |
| 20260505081054 | 55 | 0 | 0.0 | 0.0 | 0.00 | 0.17 | 0.00 | 91 | 1009.9 |
| 20260505080057 | 55 | 0 | 0.0 | 0.0 | 0.00 | 0.17 | 0.00 | 92 | 1010.1 |
| 20260505075054 | 55 | 0 | 0.0 | 0.0 | 0.00 | 0.17 | 0.00 | 92 | 1010.1 |
| 20260505074056 | 55 | 0 | 0.0 | 0.0 | 0.00 | 0.17 | 0.00 | 92 | 1010.2 |
| 20260505073056 | 55 | 0 | 0.0 | 0.0 | 0.00 | 0.17 | 0.00 | 93 | 1010.3 |
| 20260505072057 | 54 | 0 | 0.0 | 0.0 | 0.00 | 0.17 | 0.00 | 93 | 1010.4 |
| 20260505071059 | 53 | 0 | 0.0 | 0.0 | 0.00 | 0.17 | 0.00 | 94 | 1010.6 |
| 20260505070051 | 53 | 0 | 0.0 | 0.0 | 0.00 | 0.17 | 0.00 | 95 | 1010.6 |
| 20260505065058 | 53 | 0 | 0.0 | 0.0 | 0.00 | 0.17 | 0.00 | 95 | 1010.7 |
| 20260505064053 | 52 | 0 | 0.0 | 0.0 | 0.00 | 0.17 | 0.00 | 96 | 1010.8 |
| 20260505063054 | 52 | 0 | 0.0 | 0.0 | 0.00 | 0.17 | 0.00 | 97 | 1010.8 |
| 20260505062053 | 52 | 0 | 0.0 | 0.0 | 0.00 | 0.17 | 0.00 | 98 | 1010.8 |
| 20260505061053 | 51 | 0 | 0.0 | 0.0 | 0.00 | 0.17 | 0.00 | 99 | 1010.8 |
| 20260505060056 | 51 | 0 | 0.0 | 0.0 | 0.00 | 0.17 | 0.00 | 10 | 1010.8 |
| 20260505055055 | 51 | 0 | 0.0 | 0.0 | 0.00 | 0.17 | 0.00 | 10 | 1010.9 |